Вернуться в каталог

STARLINK-32938

АктивенСвязьVLEO
NORAD 63201·PAYLOAD·🇺🇸 United States

Запущен Mar 13, 2025 с Cape Canaveral Space Force Station

Loading…

Ближайшие Пролёты (ближайшие 24 часа)

TLE

СвежийSource: CelesTrak SupGP

Эпоха: Sep 15, 2026, 02:47 UTC

1 63201C 25048U   26258.11645833  .00012028  00000+0  43609-3 0  2580
2 63201  43.0015  95.5661 0001497 271.1944  35.9351 15.27540421    16

Отслеживайте STARLINK-32938 в реальном времени с AllMySat

Download on the App Store